Total_Precipitation_Accumulation
0.12 0.08 0.06 0.04 0.06 0.09 0.05 0.03 0.03 0.02 0.01 0.00 0.01 0.01 0.01 0.00 0.01 0.02 0.08 0.11 0.26 0.28 0.19 0.19 0.19 0.17 0.15 0.12 0.11 0.11 0.16 0.19 0.25
0.09 0.06 0.03 0.02 0.03 0.05 0.04 0.03 0.01 0.00 0.00 0.01 0.01 0.01 0.01 0.00 0.00 0.01 0.01 0.05 0.15 0.13 0.09 0.08 0.09 0.13 0.18 0.20 0.22 0.24 0.17 0.14 0.20
0.06 0.04 0.04 0.03 0.04 0.05 0.03 0.01 0.01 0.01 0.01 0.01 0.01 0.00 0.00 0.00 0.00 0.00 0.00 0.05 0.02 0.03 0.04 0.04 0.06 0.08 0.08 0.09 0.13 0.15 0.16 0.14 0.13
0.08 0.10 0.06 0.04 0.04 0.06 0.04 0.03 0.02 0.01 0.01 0.01 0.00 0.00 0.00 0.00 0.00 0.00 0.00 0.02 0.01 0.02 0.05 0.09 0.07 0.07 0.08 0.07 0.08 0.08 0.10 0.11 0.12
0.12 0.09 0.03 0.03 0.04 0.03 0.02 0.02 0.02 0.01 0.01 0.01 0.00 0.00 0.00 0.00 0.00 0.00 0.00 0.01 0.01 0.02 0.10 0.09 0.10 0.13 0.14 0.14 0.13 0.12 0.11 0.13 0.12
0.07 0.05 0.01 0.02 0.02 0.00 0.00 0.01 0.01 0.01 0.00 0.00 0.00 0.00 0.00 0.00 0.00 0.00 0.00 0.00 0.01 0.03 0.07 0.09 0.10 0.11 0.13 0.15 0.13 0.13 0.13 0.12 0.12
0.03 0.02 0.01 0.01 0.00 0.00 0.00 0.00 0.00 0.00 0.00 0.00 0.00 0.00 0.00 0.00 0.00 0.00 0.00 0.00 0.01 0.02 0.04 0.05 0.05 0.06 0.06 0.07 0.07 0.08 0.09 0.11 0.12
0.02 0.03 0.03 0.01 0.00 0.00 0.00 0.00 0.00 0.00 0.00 0.00 0.00 0.00 0.00 0.00 0.00 0.00 0.00 0.00 0.00 0.01 0.02 0.03 0.03 0.04 0.04 0.03 0.04 0.07 0.09 0.11 0.15
0.00 0.01 0.01 0.00 0.00 0.00 0.00 0.00 0.00 0.00 0.00 0.00 0.00 0.00 0.00 0.00 0.00 0.00 0.00 0.00 0.00 0.01 0.01 0.02 0.03 0.04 0.04 0.05 0.10 0.15 0.15 0.15 0.15
0.00 0.01 0.00 0.00 0.00 0.00 0.00 0.00 0.00 0.00 0.00 0.00 0.00 0.00 0.00 0.00 0.00 0.00 0.00 0.00 0.00 0.00 0.00 0.01 0.02 0.05 0.07 0.09 0.11 0.12 0.11 0.11 0.12
0.00 0.00 0.00 0.00 0.00 0.00 0.00 0.00 0.00 0.00 0.00 0.00 0.00 0.00 0.00 0.00 0.00 0.00 0.00 0.00 0.00 0.00 0.00 0.01 0.01 0.01 0.03 0.08 0.12 0.12 0.11 0.09 0.09
0.00 0.00 0.00 0.00 0.00 0.00 0.00 0.00 0.00 0.00 0.00 0.00 0.00 0.00 0.00 0.00 0.00 0.00 0.00 0.00 0.00 0.00 0.00 0.00 0.01 0.01 0.02 0.05 0.08 0.10 0.11 0.12 0.12
0.00 0.00 0.00 0.00 0.00 0.00 0.00 0.00 0.00 0.00 0.00 0.00 0.00 0.00 0.00 0.00 0.00 0.00 0.00 0.00 0.00 0.00 0.00 0.00 0.01 0.01 0.01 0.02 0.03 0.07 0.10 0.11 0.12
0.00 0.00 0.00 0.00 0.00 0.00 0.00 0.00 0.00 0.00 0.00 0.00 0.00 0.00 0.00 0.00 0.00 0.00 0.00 0.00 0.00 0.00 0.00 0.00 0.00 0.00 0.00 0.01 0.04 0.09 0.11 0.12 0.12
0.00 0.00 0.00 0.00 0.00 0.00 0.00 0.00 0.00 0.00 0.00 0.00 0.00 0.00 0.00 0.00 0.00 0.00 0.00 0.00 0.00 0.00 0.00 0.00 0.00 0.00 0.01 0.02 0.04 0.25 0.45 0.22 0.11
0.03 0.00 0.00 0.00 0.00 0.00 0.00 0.00 0.00 0.00 0.00 0.00 0.00 0.00 0.00 0.00 0.00 0.00 0.00 0.00 0.00 0.00 0.00 0.00 0.00 0.00 0.00 0.01 0.05 0.19 0.51 0.81 0.57
0.14 0.04 0.01 0.00 0.00 0.00 0.00 0.00 0.00 0.00 0.00 0.01 0.02 0.02 0.00 0.00 0.00 0.00 0.00 0.00 0.00 0.00 0.00 0.00 0.00 0.00 0.01 0.01 0.02 0.05 0.13 0.34 0.78
0.52 0.31 0.11 0.06 0.07 0.07 0.04 0.05 0.06 0.07 0.03 0.02 0.04 0.07 0.04 0.02 0.00 0.00 0.00 0.00 0.00 0.00 0.00 0.00 0.00 0.01 0.01 0.01 0.01 0.02 0.06 0.10 0.25
1.08 0.94 0.57 0.34 0.27 0.28 0.31 0.26 0.21 0.16 0.14 0.07 0.03 0.05 0.06 0.11 0.07 0.02 0.02 0.01 0.01 0.00 0.00 0.00 0.01 0.02 0.03 0.05 0.08 0.12 0.16 0.20 0.26
1.54 1.53 1.52 1.34 1.18 0.91 0.74 0.71 0.54 0.38 0.30 0.22 0.19 0.22 0.15 0.12 0.18 0.15 0.05 0.05 0.03 0.02 0.01 0.01 0.02 0.03 0.04 0.04 0.09 0.16 0.21 0.34 0.47